User: anonymous   Login
Location: Callao
(39.8979°N, 113.7141°W)
Time: 21:55:25
(UTC+00:00)
Language:

CUTE 1.7 + AOD 2 - Orbit

View from above orbital plane
View from above orbital plane
View from above satellite
View from above satellite

Ground track
Ground track

The orbit data is extracted from the following two-line orbital elements,

1 32785U 08021C   21125.45006121  .00000283  00000-0  35866-4 0  9991
2 32785  97.6085 105.9700 0013908 140.3808 219.8428 14.88699332705840
Epoch (UTC): 05 May 2021 10:48:05
Eccentricity: 0.0013908
inclination: 97.6085°
perigee height: 592 km
apogee height: 612 km
right ascension of ascending node: 105.9700°
argument of perigee: 140.3808°
revolutions per day: 14.88699332
mean anomaly at epoch: 219.8428°
orbit number at epoch: 70584

The dashed part of the orbit path shows where the satellite is in the earth's shadow,  

DLR